Wind_Speed
18 20 22 25 27 27 28 29 33 35 30 26 25 26 28 29 31 34 36 36 37 39 44 45 44 42 44 48 41 32 34 38 40 40 44 48 48 48 49 51 51 47 41 35 33 32 32 34 35 34 33 34 33 33 35 33 31 27 23 21 21 17 13 10 10 11 11 11 12 13 14 15 16 17 17 16 16 16 16 17 17 16 15 15 13 12
18 23 27 29 28 26 25 26 28 31 31 30 29 29 32 32 32 32 33 36 38 40 41 41 42 44 42 44 48 44 37 36 39 40 41 44 46 45 48 52 54 52 46 38 35 35 35 37 38 35 33 33 33 34 36 33 30 24 21 22 20 15 12 10 10 11 12 12 12 14 14 16 16 16 15 15 16 16 17 17 17 17 16 16 14 13
22 27 30 28 27 24 23 24 25 27 31 34 35 33 34 33 30 31 34 34 37 41 40 38 40 46 46 43 44 49 47 43 41 41 39 40 43 43 43 47 50 53 50 43 40 39 40 41 37 33 31 31 33 36 36 33 28 22 21 23 19 14 12 11 12 12 12 13 14 15 16 17 16 15 14 16 16 17 17 18 18 17 17 16 15 14
26 30 30 27 25 24 24 24 25 26 29 35 39 38 37 34 27 27 35 36 36 40 40 36 37 43 46 45 44 43 45 49 47 45 41 37 41 44 44 45 49 54 52 45 44 42 41 40 35 32 32 31 33 37 36 32 26 21 21 23 18 13 12 12 13 13 14 15 16 16 16 16 14 13 15 17 18 17 17 17 17 17 16 16 15 15
28 29 28 25 24 25 27 26 26 29 32 35 41 43 39 35 31 27 29 36 35 35 40 37 31 39 48 46 46 44 43 48 48 47 45 41 40 39 39 46 52 55 53 46 46 44 40 39 35 33 33 32 33 36 35 32 24 20 23 22 17 13 14 14 13 14 16 17 16 15 15 13 12 12 15 17 18 17 17 17 17 16 16 16 16 15
28 27 24 24 24 26 29 30 29 30 33 34 39 47 42 34 35 31 23 31 36 31 38 41 25 26 45 49 43 42 42 47 46 44 45 45 46 41 34 44 55 55 51 47 45 42 39 39 36 33 34 32 33 35 34 30 23 21 23 21 16 15 15 14 14 16 17 16 15 14 13 11 11 12 15 17 17 18 18 18 18 17 16 16 16 16
30 28 26 26 27 28 30 33 32 30 34 36 36 43 45 38 36 36 29 27 34 32 33 41 29 14 30 48 45 40 42 45 44 42 43 43 47 47 38 42 54 53 47 44 42 40 39 39 37 35 35 33 33 34 32 28 22 21 23 20 17 16 15 14 15 17 17 15 15 14 12 12 12 14 15 17 18 18 18 17 17 17 17 16 16 16
30 28 26 26 29 31 31 32 33 32 34 37 33 33 42 46 40 39 38 29 30 36 32 37 39 20 21 41 45 41 42 43 44 43 43 42 42 46 44 45 51 51 46 43 41 39 39 39 38 36 35 35 34 33 30 26 22 23 23 20 18 17 15 15 16 18 17 15 14 13 13 14 14 15 17 18 19 19 18 17 17 17 17 16 16 16
26 24 23 24 26 31 32 31 31 32 36 37 30 26 37 48 46 42 39 34 30 29 29 37 42 24 18 35 40 39 42 42 44 46 45 44 41 42 45 47 51 50 47 45 42 41 40 40 39 37 35 35 33 31 28 24 22 24 24 20 18 16 15 14 17 19 18 16 15 15 15 15 15 16 18 19 19 19 18 17 17 16 16 16 15 15
23 22 22 23 26 30 31 29 28 31 36 35 28 26 32 40 47 45 37 36 33 22 22 37 43 25 13 28 39 39 44 43 41 45 47 45 41 41 45 49 51 48 45 44 42 40 41 40 39 37 36 34 32 29 27 24 25 26 24 19 17 15 14 15 18 19 18 18 18 18 17 17 17 18 18 18 18 18 18 17 16 16 16 16 15 14
27 24 24 25 27 29 29 28 28 31 33 33 30 28 29 36 45 42 36 35 25 16 22 36 47 34 12 21 40 42 42 42 41 44 45 44 42 41 45 50 49 45 43 42 40 40 40 41 40 38 36 34 32 30 27 27 28 26 23 19 17 15 14 16 18 18 19 19 19 19 19 19 18 19 18 16 16 17 18 17 15 15 16 17 15 14
28 26 26 28 29 30 29 27 28 30 32 34 34 31 27 31 36 31 31 30 13 9 28 38 44 38 19 22 40 43 40 38 40 45 45 44 45 44 46 48 46 42 41 41 40 41 42 42 42 40 37 36 33 31 29 30 31 27 23 20 16 14 14 16 18 19 19 19 19 19 20 19 19 18 17 16 16 17 18 17 16 16 17 16 15 13
28 30 30 29 29 31 30 28 27 29 35 38 37 33 22 16 18 14 14 15 10 15 31 36 34 32 29 31 32 33 38 38 38 44 46 44 46 48 49 49 45 41 42 42 43 44 44 44 43 40 38 38 35 32 31 31 30 26 22 19 15 14 15 17 19 19 20 20 19 19 20 19 18 16 16 17 17 18 18 17 17 17 17 16 15 15
23 27 32 32 32 34 33 30 29 30 35 39 39 35 21 8 7 8 7 8 11 20 31 34 27 23 28 34 33 29 31 34 37 42 45 45 45 48 51 49 43 41 42 44 45 45 45 44 42 40 39 38 35 32 32 32 29 26 21 18 15 15 17 18 20 20 21 20 20 20 20 18 16 15 16 17 17 17 17 18 18 17 17 17 16 16
17 16 23 29 31 34 37 35 32 29 30 35 39 36 27 19 11 7 7 7 6 11 22 29 23 19 21 24 31 31 26 28 35 40 43 44 45 46 48 46 41 41 44 44 45 45 45 43 42 40 38 36 34 33 33 32 29 25 20 18 17 16 17 18 20 21 21 20 20 20 19 17 16 15 16 17 17 17 17 18 18 17 17 17 17 17
15 18 19 21 27 32 34 35 34 30 26 29 36 36 33 30 22 13 12 13 8 5 14 22 19 20 24 19 18 21 24 29 33 39 42 44 47 47 46 45 41 41 44 44 45 45 44 43 41 39 37 35 33 33 33 33 29 24 20 19 18 16 17 19 20 20 20 21 21 20 18 16 16 16 16 17 16 16 18 18 18 17 17 18 18 17
11 18 16 14 23 31 31 31 32 32 27 23 26 33 38 36 27 20 15 16 13 5 10 20 15 15 26 27 23 21 24 30 33 40 44 45 48 48 47 46 43 43 45 44 45 45 42 40 39 38 36 33 32 32 32 32 28 23 20 19 18 16 17 19 20 20 21 22 21 19 17 16 15 16 16 16 16 16 17 18 18 17 17 18 17 17
15 19 18 14 20 27 28 25 28 34 33 23 17 24 35 35 30 23 11 7 9 4 8 19 14 16 23 24 29 32 29 30 36 42 46 46 48 48 47 46 44 45 45 43 44 43 40 38 37 37 34 30 30 31 31 31 27 23 20 19 17 16 17 19 19 20 21 22 20 18 16 16 15 15 15 15 15 17 18 18 17 16 17 17 16 17
15 15 15 14 19 23 24 23 27 33 34 27 21 19 20 22 24 24 12 4 6 3 4 13 14 19 26 23 29 36 34 33 37 43 47 47 47 48 48 47 45 45 45 43 42 41 40 39 38 37 33 30 30 30 30 30 27 23 21 19 17 17 18 19 20 21 22 22 20 17 15 15 15 14 14 14 15 17 17 17 17 17 17 16 16 15
13 10 8 7 16 20 20 23 28 33 33 30 25 22 21 17 17 20 17 8 5 3 3 8 8 11 22 28 28 30 33 34 36 43 47 47 47 49 49 47 46 46 45 44 42 40 40 39 36 35 32 30 30 29 29 29 27 24 21 20 19 19 20 21 21 22 22 22 20 17 16 15 15 14 14 14 16 17 17 17 17 16 17 16 15 14
12 11 8 5 13 18 21 28 33 33 31 28 28 25 20 18 17 14 17 16 7 2 2 4 4 10 21 27 25 24 27 29 32 41 46 45 46 47 46 45 45 45 46 44 43 41 40 37 34 33 31 30 30 29 28 27 26 23 22 21 20 20 20 21 22 23 22 22 20 18 16 15 14 13 14 16 17 17 16 16 16 16 16 16 15 15
10 10 11 7 11 20 27 35 35 31 26 22 23 21 14 17 19 9 8 19 17 7 5 5 4 15 25 26 25 24 22 24 31 41 43 41 42 43 43 43 43 44 45 44 42 41 38 35 34 32 31 30 30 29 27 27 26 24 22 22 21 20 21 21 22 22 22 22 20 18 16 15 14 13 14 16 17 16 15 15 15 16 16 15 15 15
10 11 15 13 9 16 23 29 31 28 23 16 17 19 16 18 23 14 5 15 20 13 12 11 5 13 26 29 29 27 22 25 35 39 37 36 38 39 40 41 41 43 44 42 41 39 37 35 33 31 30 29 29 28 28 27 26 25 24 23 21 20 21 22 22 22 22 22 19 17 16 15 14 13 14 16 16 14 14 14 15 16 14 14 14 14
7 9 12 10 5 10 15 20 25 22 18 19 23 25 24 24 26 24 15 14 18 16 13 8 3 12 25 28 29 30 27 30 36 37 34 35 38 40 40 42 43 43 43 42 40 38 38 36 34 30 27 28 29 28 28 28 26 26 25 23 22 21 22 23 23 22 22 20 19 17 16 14 13 14 15 15 14 13 13 14 14 15 13 13 13 13
6 5 7 4 2 2 6 10 16 19 21 25 27 28 28 25 25 29 27 18 15 19 17 7 3 11 18 21 28 33 32 33 37 37 33 32 36 42 43 43 43 43 42 41 40 39 38 36 35 33 28 28 29 28 28 27 27 27 26 23 23 22 23 24 23 22 21 19 18 17 15 13 13 14 14 13 13 13 13 14 14 14 13 12 12 13
8 5 5 4 1 2 4 8 15 21 23 24 25 26 23 22 24 24 23 15 11 20 22 11 9 12 12 20 31 35 34 34 33 32 28 27 33 41 44 43 42 42 40 40 41 39 36 33 34 33 30 29 30 29 28 28 27 27 25 24 24 23 24 24 22 22 21 20 18 16 14 13 13 14 13 12 12 13 13 12 12 12 12 11 13 16
9 7 8 11 12 9 6 9 17 21 20 19 20 21 17 20 24 21 17 14 10 13 17 14 17 19 15 22 30 30 32 31 29 29 28 29 35 41 43 42 40 40 39 38 38 37 34 33 33 33 30 30 31 30 28 27 26 26 25 24 24 25 25 24 22 22 22 20 17 15 14 13 13 13 13 12 12 12 11 11 11 11 11 12 17 20
11 11 12 13 13 12 10 9 14 17 18 17 17 19 18 18 20 18 17 20 13 7 7 12 23 27 21 24 28 26 26 26 27 32 32 32 39 42 41 41 39 39 39 36 35 34 33 33 33 33 32 32 32 31 29 27 25 24 23 23 24 26 26 24 23 23 21 19 18 15 14 13 13 13 12 12 12 12 11 11 11 12 13 18 21 20
14 13 12 10 11 12 11 10 12 13 18 20 19 20 20 19 19 19 18 21 14 5 2 7 20 29 24 24 29 27 25 26 27 31 32 32 37 40 40 41 41 39 38 35 34 32 31 31 30 31 34 35 32 31 29 27 25 24 23 23 25 26 26 24 24 22 20 19 18 16 15 13 13 13 12 12 13 12 12 12 13 14 17 22 22 18
12 11 11 10 11 14 13 12 11 14 20 23 22 21 20 20 25 25 13 10 8 6 6 7 20 31 25 23 28 26 24 29 29 28 29 30 35 41 42 41 40 39 37 35 33 29 28 29 28 29 34 36 34 32 30 28 25 24 23 24 26 26 26 25 24 22 20 20 19 17 15 14 13 13 12 12 12 12 12 13 14 16 21 23 21 18
10 10 10 10 10 14 15 13 12 16 21 22 23 24 25 25 29 20 5 7 8 9 7 7 17 25 22 22 26 23 21 27 31 30 27 27 32 40 42 42 41 39 37 35 31 28 27 28 28 29 34 37 35 33 32 29 26 24 24 26 27 26 25 25 23 21 20 21 20 18 16 14 13 13 12 11 12 12 12 14 15 18 22 24 22 20
9 10 9 8 9 11 13 10 10 17 19 22 26 26 27 26 19 7 8 8 13 11 5 6 12 16 18 22 23 18 16 24 35 35 30 29 30 33 35 37 37 35 34 32 30 28 28 28 29 31 35 37 36 34 32 30 27 26 26 28 29 27 26 24 23 21 22 22 21 19 17 15 14 14 12 11 12 13 14 15 16 19 23 25 24 22
9 10 9 9 8 9 9 9 10 11 10 18 26 25 23 18 8 7 8 10 13 11 5 5 9 10 14 20 20 16 14 22 32 34 33 33 31 30 31 31 32 31 30 30 29 29 30 29 29 31 35 37 35 33 32 29 27 28 29 30 30 28 25 24 23 23 23 23 22 20 17 16 15 15 13 11 12 14 15 16 17 20 24 26 26 24
9 8 8 9 7 7 8 6 7 5 7 15 21 15 12 10 5 5 9 11 11 8 4 4 5 9 13 16 19 19 17 21 26 27 31 34 32 32 32 32 32 32 30 28 28 29 29 29 29 31 34 35 33 32 30 28 28 29 30 30 30 28 25 24 24 24 24 23 22 20 18 17 17 16 14 13 13 13 15 17 18 20 24 26 27 25
8 7 7 8 7 7 7 2 1 5 15 20 14 11 11 10 9 8 8 12 11 5 3 3 4 9 13 15 20 22 20 21 24 26 30 32 32 33 34 33 32 32 30 28 28 29 29 29 31 33 34 33 32 30 29 28 28 29 30 30 30 28 25 24 25 25 24 23 22 20 19 18 17 16 15 14 13 13 14 17 19 21 23 25 26 27
10 8 8 8 6 7 7 6 4 9 21 20 11 12 15 12 15 14 8 11 11 4 3 5 4 5 9 15 20 22 21 22 24 26 27 28 29 29 28 28 28 28 28 27 29 31 30 29 31 33 32 32 31 30 29 29 28 29 29 30 30 28 25 25 26 26 25 23 21 20 19 18 18 16 15 15 14 14 14 16 18 21 22 24 26 27
11 9 9 8 5 4 5 9 8 10 14 18 14 14 15 14 15 16 11 10 10 6 4 6 7 4 5 11 16 19 22 22 23 25 25 25 26 25 23 24 24 24 25 26 28 30 30 30 31 31 30 31 31 30 30 28 28 28 29 29 29 27 26 26 26 26 24 22 20 19 19 19 18 17 16 16 15 15 15 16 17 19 21 23 25 26
13 12 11 8 5 4 5 3 7 7 8 17 18 14 15 14 12 15 16 13 10 9 6 8 12 7 3 6 8 12 18 22 24 26 26 26 26 26 24 23 23 23 24 27 29 30 31 31 31 29 30 30 30 29 28 27 27 28 28 29 28 27 26 27 27 25 23 21 20 20 20 19 18 17 17 17 17 17 17 17 17 17 19 20 22 25
13 13 11 10 9 9 6 3 5 6 9 17 17 12 13 13 11 15 17 15 12 16 11 8 11 9 6 7 5 5 11 20 27 29 29 29 28 27 28 28 26 26 27 28 31 32 32 32 30 29 30 30 29 28 26 26 27 27 28 28 27 27 27 27 26 24 22 20 20 20 20 19 19 19 18 18 18 18 18 17 17 18 19 19 21 23
12 13 12 13 12 10 8 7 8 11 12 14 15 13 13 14 15 14 11 12 15 18 14 12 11 10 10 9 5 5 7 14 22 26 29 32 31 28 30 31 30 29 29 30 32 32 32 30 29 29 29 28 27 26 26 26 26 26 27 27 27 26 26 25 24 23 21 20 19 20 20 20 20 20 19 18 18 18 19 19 19 20 20 21 22 23
13 13 13 15 12 10 10 9 10 13 11 10 15 16 15 16 18 17 15 14 14 11 12 16 15 12 12 11 7 6 7 11 16 20 24 30 31 30 32 33 33 33 32 31 31 31 30 28 27 27 27 27 27 27 26 26 26 26 27 27 26 24 23 22 23 22 20 19 20 21 21 21 20 20 19 18 18 20 21 21 21 22 22 23 24 25
11 10 9 12 12 11 12 11 10 11 10 11 14 15 15 18 18 18 18 17 12 10 13 16 15 13 15 15 9 7 9 12 15 18 24 27 28 31 34 35 36 37 36 34 32 30 29 28 28 28 28 28 27 27 25 25 25 26 26 26 24 22 21 21 21 20 19 19 21 21 20 19 18 18 18 19 19 20 21 21 22 23 24 24 25 25
8 6 4 6 8 9 10 8 6 6 10 14 14 10 12 17 17 15 17 18 15 14 14 14 13 13 15 15 11 9 12 15 17 22 29 31 32 35 37 37 38 38 36 34 32 31 29 29 28 29 28 28 27 26 24 24 25 25 25 24 22 20 19 20 20 19 19 19 20 20 18 17 17 18 18 19 20 22 23 22 23 24 24 24 24 24
3 4 5 6 6 7 10 10 9 8 9 12 13 9 7 11 14 14 17 19 19 17 13 11 11 12 14 14 12 10 12 15 16 20 25 29 33 35 35 35 36 35 35 34 31 29 28 27 28 28 27 27 26 25 25 24 24 24 22 20 18 17 18 18 18 18 18 18 18 18 17 17 17 17 18 20 21 22 24 24 24 24 25 24 23 23
4 4 6 7 6 6 9 10 11 12 8 8 13 13 9 8 13 16 15 16 17 15 11 10 12 13 13 12 10 8 8 11 13 15 20 26 27 26 28 31 30 29 29 27 25 25 26 26 26 26 25 25 24 23 23 23 22 21 19 17 15 15 15 16 17 17 17 17 17 17 17 18 18 18 19 19 20 20 22 23 24 25 24 23 22 22
9 9 7 6 4 6 8 7 10 13 10 7 11 14 12 11 15 17 14 12 13 14 13 13 14 14 13 11 8 5 4 6 8 11 14 16 15 14 18 21 21 21 20 17 18 23 25 24 24 23 23 23 23 21 21 20 19 18 16 15 14 13 14 15 16 17 17 17 17 17 17 18 18 19 19 19 19 20 21 23 25 25 25 23 21 22
11 10 7 5 1 5 6 6 10 13 11 10 12 12 12 13 17 19 15 12 13 15 15 15 16 16 14 9 6 3 3 5 6 7 8 7 6 8 11 11 11 12 11 10 14 20 21 22 23 22 21 21 20 19 19 18 17 17 15 14 13 13 15 16 17 17 17 16 16 17 17 18 18 18 18 18 19 20 21 22 23 23 22 20 20 20
11 10 7 4 1 4 6 9 12 14 14 15 15 11 10 13 17 19 17 17 19 18 17 17 16 15 12 8 6 4 5 6 7 7 7 6 6 9 9 6 7 10 10 9 12 16 17 20 21 21 20 19 18 17 17 16 15 15 14 14 15 15 16 17 17 16 16 16 17 17 17 17 18 18 17 17 18 20 21 21 21 20 19 19 19 19
9 8 5 1 4 8 10 12 14 16 16 14 14 14 13 11 12 14 16 19 21 18 16 16 14 11 8 7 7 6 6 6 7 7 7 7 9 10 9 6 7 10 10 9 11 13 16 16 16 16 16 16 15 15 14 14 14 13 14 15 15 15 15 16 16 16 16 16 16 16 16 17 17 17 17 16 17 19 20 21 21 20 20 20 20 19
11 10 5 3 8 11 11 11 14 18 18 15 14 15 16 13 12 13 15 17 18 17 17 16 14 11 10 9 8 7 7 7 8 8 8 8 9 10 9 7 8 9 10 11 11 12 14 14 14 13 14 14 13 13 13 13 13 13 14 14 14 14 15 15 16 15 15 14 14 14 15 16 16 16 16 17 17 18 19 19 19 18 18 19 18 17
11 9 4 5 9 12 11 11 14 15 15 15 14 14 17 17 16 15 16 16 16 16 16 17 15 13 12 11 10 10 10 9 9 9 8 8 9 9 8 7 9 11 12 15 14 11 11 12 12 12 12 13 13 13 13 14 14 14 15 15 14 14 14 15 14 13 12 12 12 12 13 14 14 14 15 16 16 17 17 17 17 18 20 20 18 16
Wind_Direction
228 222 223 229 230 231 232 231 228 226 226 227 230 235 234 233 231 225 222 220 215 220 226 222 219 223 225 225 221 213 211 216 220 221 223 225 228 228 230 239 246 247 244 240 240 242 250 257 260 265 258 245 245 246 246 248 245 248 251 238 228 226 229 240 252 262 269 273 275 274 272 268 262 262 261 255 251 250 247 244 243 247 251 254 259 265
226 225 228 234 236 238 241 242 239 233 228 226 227 235 237 237 237 228 223 222 217 221 226 220 221 226 226 227 224 218 212 211 217 224 225 225 228 230 230 233 240 243 242 240 240 243 250 256 259 259 247 240 244 244 245 246 244 248 244 230 224 225 227 235 247 257 262 266 269 268 265 261 260 262 259 253 250 248 248 247 247 249 251 254 259 263
225 231 234 237 238 241 243 241 239 236 232 228 228 236 241 239 238 230 225 222 216 219 224 220 225 231 228 226 222 218 218 215 214 222 228 229 229 229 227 228 233 236 236 237 240 245 250 253 255 249 239 240 244 243 245 245 243 244 233 224 224 224 224 233 244 252 257 260 262 261 260 262 264 262 255 250 249 249 250 249 249 251 251 254 259 261
227 229 231 236 241 240 240 239 235 234 234 230 227 233 239 236 233 228 222 219 218 218 220 226 232 230 221 219 220 221 225 225 224 225 225 227 229 228 227 228 230 231 230 234 239 243 246 248 248 241 237 241 243 242 243 242 241 239 227 222 224 223 223 232 241 249 256 259 260 260 262 266 267 262 256 252 250 250 250 247 248 251 253 255 258 258
230 227 226 233 240 239 239 239 233 231 234 232 228 229 233 233 228 229 222 219 225 222 217 226 234 222 215 216 222 225 228 229 231 231 225 221 226 230 231 232 231 228 228 232 235 238 241 243 244 240 238 241 242 242 241 240 241 234 222 221 223 221 223 232 243 254 260 262 263 263 265 268 265 259 256 255 253 251 251 250 252 255 257 257 256 253
239 239 235 235 236 239 239 238 234 229 233 235 230 226 228 230 227 232 232 217 223 227 215 217 226 218 215 218 221 219 221 226 228 232 227 221 225 233 235 231 226 225 227 230 232 235 237 240 243 240 237 241 241 240 238 237 238 227 217 218 221 219 224 234 246 258 265 267 266 265 266 266 257 253 253 253 251 250 252 253 255 258 259 257 252 248
242 242 241 239 239 241 239 236 234 229 232 236 233 226 224 227 230 234 238 222 218 227 220 215 222 223 210 213 216 212 213 219 222 226 227 223 226 230 231 226 222 221 224 226 228 233 234 239 244 240 237 239 240 238 235 235 233 218 211 216 219 219 225 234 246 259 267 267 264 265 266 262 252 247 248 247 248 250 251 253 255 258 259 253 245 246
238 238 241 240 238 241 240 237 233 227 232 235 232 229 224 225 230 232 239 242 227 225 227 223 223 225 207 207 210 209 211 217 221 225 227 224 223 224 226 225 221 219 220 221 224 228 233 239 243 240 236 238 239 236 233 233 227 213 210 216 216 218 225 235 251 261 263 261 259 263 263 257 250 246 245 245 247 249 250 252 253 254 253 246 239 244
238 242 246 244 240 240 240 237 233 228 231 233 228 230 227 224 228 232 239 252 250 234 227 224 222 225 218 206 203 206 212 218 222 224 226 223 219 220 223 223 219 216 218 220 221 225 233 239 241 239 236 237 239 235 231 230 219 209 211 214 214 218 227 242 257 260 258 256 254 256 257 254 252 248 246 245 247 249 250 251 252 249 245 239 237 242
245 249 249 248 243 240 238 235 232 230 230 228 223 229 231 227 230 236 240 248 258 256 231 219 215 220 223 199 197 204 212 217 219 221 223 221 220 221 221 219 214 213 217 220 222 227 233 238 239 237 234 234 236 232 230 222 210 209 212 213 215 219 232 250 257 257 256 255 251 253 258 258 254 250 247 247 249 251 251 250 249 246 238 234 236 238
246 255 255 250 242 234 235 234 231 232 228 222 222 230 234 231 232 237 242 245 253 264 249 229 214 215 223 196 200 207 213 217 217 218 219 217 217 215 212 211 208 210 216 219 222 227 231 235 237 235 230 230 231 229 226 217 209 210 213 214 217 222 239 254 253 251 253 252 249 253 260 259 254 250 248 249 252 252 250 247 244 239 233 232 234 234
246 249 247 247 242 228 227 232 232 232 224 217 225 231 228 229 231 234 239 241 241 248 250 238 217 213 218 205 207 213 218 222 219 216 215 213 212 209 207 208 207 212 217 218 221 224 226 230 232 231 227 226 227 225 223 217 211 210 212 214 218 227 245 252 247 245 246 246 248 253 257 257 255 251 248 248 249 249 248 243 237 234 232 232 234 237
247 244 239 241 241 229 228 233 232 229 221 218 227 231 225 220 222 224 232 233 229 239 243 235 216 211 217 213 208 216 224 225 221 216 213 212 211 209 211 213 213 218 220 218 220 222 223 228 229 228 225 224 225 223 220 217 212 211 213 214 221 235 246 246 241 239 242 246 250 254 256 256 255 251 245 244 244 245 246 241 234 232 233 236 241 246
249 249 242 241 240 229 224 228 232 228 220 219 224 226 222 204 193 204 211 217 228 236 237 232 219 208 212 212 210 219 226 222 218 215 212 213 211 209 213 215 215 218 218 216 219 221 222 226 228 227 226 225 223 220 218 216 213 212 214 217 227 239 243 242 240 239 242 248 252 256 258 258 254 248 244 244 244 244 243 238 234 233 235 241 248 251
247 256 245 238 232 219 216 222 228 226 221 220 221 222 222 216 206 197 198 210 224 231 229 227 223 208 201 204 211 220 226 222 218 213 211 212 211 210 213 213 212 213 215 216 219 221 221 224 226 225 225 225 221 218 216 214 212 213 215 222 232 240 242 243 242 241 244 249 254 258 262 259 251 247 248 247 247 241 235 233 234 236 241 247 254 257
250 261 255 235 221 212 214 221 220 222 227 223 218 223 225 218 215 217 221 227 226 225 225 222 223 215 208 212 220 218 218 221 217 209 207 209 209 209 211 211 210 212 214 216 218 221 221 223 226 226 226 225 220 218 218 216 214 214 217 226 232 236 240 243 242 242 246 250 255 258 260 256 249 248 251 250 247 240 232 232 234 238 245 251 256 258
261 262 256 233 221 217 217 219 218 217 220 220 217 221 219 214 217 223 227 234 226 204 219 220 215 198 203 218 230 217 210 215 211 203 204 206 206 207 209 209 208 210 213 215 218 221 222 223 224 224 225 223 219 220 220 218 216 215 219 228 231 232 236 241 241 242 248 252 256 258 255 249 246 247 249 247 245 239 234 235 237 242 248 252 257 257
264 272 265 239 226 223 215 215 221 218 221 231 226 213 212 217 231 237 231 229 219 193 212 214 197 164 178 209 224 214 207 210 208 201 199 203 204 205 206 206 205 208 212 214 217 220 222 223 221 219 219 219 220 223 222 219 216 214 219 225 227 229 234 239 241 243 250 255 259 257 247 242 243 243 243 239 235 233 233 236 239 244 249 252 255 254
257 281 276 237 222 222 213 215 224 222 222 225 216 211 223 232 238 238 234 210 191 204 224 206 193 177 181 200 214 209 209 212 207 198 196 199 202 203 203 202 203 208 211 214 216 219 220 222 220 216 215 217 220 223 223 219 215 213 218 222 221 225 230 234 239 242 249 256 258 251 238 236 238 239 238 234 232 233 235 238 241 246 250 251 251 248
256 274 295 241 213 211 209 214 221 217 213 214 222 245 261 258 243 228 226 223 181 191 231 197 200 193 190 201 208 207 213 215 204 195 195 197 200 202 201 200 204 208 211 214 216 218 219 221 219 215 214 218 221 221 218 214 211 211 215 220 220 222 226 230 234 238 245 252 254 246 234 233 232 231 232 233 234 237 240 243 245 247 249 249 246 239
256 245 279 268 194 195 207 210 210 209 210 216 231 247 253 247 243 230 228 239 228 178 182 171 210 218 203 202 201 201 211 213 203 195 194 196 198 200 200 202 206 209 211 213 214 217 219 219 218 214 213 219 221 216 212 209 208 210 214 218 220 220 225 230 232 237 243 248 248 242 236 235 231 226 226 230 235 238 242 245 245 245 245 244 237 230
251 242 279 284 195 199 209 206 204 205 208 218 226 228 231 237 235 225 230 235 233 231 199 165 198 220 213 206 198 201 209 206 199 193 191 193 197 198 200 202 206 209 210 211 213 217 219 218 217 214 212 216 216 211 210 209 207 209 214 216 216 218 224 228 232 236 242 245 243 238 237 236 231 226 225 230 235 239 242 244 244 242 242 239 231 232
258 263 287 292 239 221 218 211 211 206 202 220 231 220 233 252 238 225 219 218 223 238 221 201 219 215 203 197 196 203 206 193 188 187 187 195 199 199 199 200 203 208 210 212 214 216 218 218 214 210 210 213 211 208 206 204 205 209 212 212 212 217 222 225 230 235 240 241 237 235 236 236 233 228 227 233 238 239 241 244 242 240 238 235 230 235
268 268 285 299 273 247 236 220 218 215 220 249 252 237 244 261 245 229 231 222 220 235 223 198 239 211 195 194 199 200 197 187 184 185 188 196 199 199 198 198 200 205 209 212 214 215 216 215 210 206 208 207 203 201 199 198 202 206 206 207 210 213 218 223 228 233 237 235 229 230 233 234 232 229 232 237 237 236 240 242 241 238 236 230 227 232
297 279 288 321 41 236 234 221 226 234 242 250 251 241 242 257 251 234 236 241 229 227 221 189 196 212 197 196 198 192 187 181 179 182 186 191 196 196 194 196 200 205 209 212 213 213 213 214 211 209 208 202 197 195 193 195 200 201 201 204 207 210 215 221 227 233 235 228 222 224 229 231 231 232 237 237 232 234 239 241 242 239 232 227 224 217
302 293 295 301 299 168 189 213 222 225 230 238 244 242 246 266 266 246 241 248 231 219 220 201 189 208 191 178 182 182 183 180 178 186 191 192 196 196 194 196 200 204 209 211 211 211 212 212 209 208 204 196 193 193 192 194 197 198 199 202 205 210 214 219 226 230 229 223 218 221 227 230 231 234 238 236 232 235 238 241 243 237 229 223 207 192
307 302 304 297 276 255 250 233 214 210 219 233 236 233 251 271 263 257 257 254 244 230 228 213 199 203 184 165 169 173 180 184 187 196 201 199 198 197 196 198 202 206 209 211 212 212 214 211 205 203 198 189 189 193 193 194 196 197 200 203 206 211 214 219 225 227 225 220 216 219 225 227 230 234 236 235 233 235 237 237 232 224 218 203 184 179
318 313 311 305 275 265 289 271 227 217 227 240 238 234 246 248 242 256 256 240 252 284 247 216 200 194 176 161 164 169 179 187 187 189 195 199 197 195 197 199 201 205 207 210 212 213 213 208 202 198 193 186 188 193 192 193 197 199 203 205 209 214 215 217 223 226 224 218 214 216 220 223 227 231 234 233 230 231 231 224 216 209 198 183 177 181
312 320 325 314 276 270 280 258 241 244 245 250 254 245 236 220 228 255 246 230 250 283 191 176 171 168 158 155 162 168 177 185 183 184 191 198 197 195 197 199 200 203 206 209 213 214 211 205 199 196 192 187 190 192 192 194 199 201 204 207 212 216 216 217 222 225 222 216 214 216 217 219 223 228 233 232 227 228 225 215 208 200 189 182 183 190
297 315 335 323 287 280 269 244 247 252 244 250 254 241 227 230 251 262 243 210 230 197 159 139 143 148 149 151 158 165 174 178 180 188 194 197 199 199 199 200 200 203 206 209 211 212 209 205 202 198 194 191 193 196 197 201 204 206 207 210 215 218 217 218 222 223 219 215 215 218 218 218 221 226 232 231 226 228 224 214 207 197 189 190 193 197
293 306 327 326 299 277 257 252 257 235 230 250 259 246 238 250 262 260 189 148 193 172 154 155 141 140 147 153 156 163 174 177 182 191 193 191 195 198 199 200 201 202 205 207 209 208 205 203 204 201 197 195 198 202 205 207 209 211 212 214 219 220 218 219 222 220 216 215 216 219 220 217 219 226 232 231 228 229 226 218 211 200 196 198 201 204
304 310 320 333 313 270 252 267 256 227 235 258 262 257 250 248 248 212 132 160 192 179 161 168 141 131 151 163 161 160 166 178 185 190 192 191 193 195 197 197 198 200 203 205 208 209 205 203 203 202 200 200 201 204 208 211 212 214 215 217 220 221 219 219 221 218 214 214 215 219 219 216 219 227 232 231 229 229 228 222 215 207 204 205 208 210
307 310 320 341 323 275 280 291 250 238 268 261 250 256 255 243 218 138 150 175 174 162 150 154 139 134 154 166 168 160 151 167 180 186 191 196 199 202 204 204 204 206 209 210 212 210 206 205 204 202 202 202 204 207 210 212 212 213 216 218 221 223 220 219 219 216 214 214 215 217 217 216 220 226 230 233 231 228 227 224 219 214 212 212 213 216
307 306 313 330 315 298 315 295 249 279 284 235 227 235 238 230 212 161 170 167 154 147 142 138 153 170 167 164 167 160 145 156 173 182 189 196 202 206 210 212 213 213 215 215 213 208 206 207 203 200 200 201 204 206 207 208 210 213 217 220 223 224 221 218 219 217 216 215 214 216 217 216 221 227 229 232 233 231 228 225 223 221 220 219 220 222
306 311 310 313 305 316 322 255 185 258 229 213 206 213 218 211 205 202 176 158 151 137 151 174 179 181 176 170 170 163 148 152 167 173 177 185 194 202 207 208 207 210 213 212 210 207 205 202 197 195 196 197 199 201 202 205 209 213 218 222 225 225 220 218 219 218 217 216 214 216 217 219 224 228 231 234 236 235 231 226 225 227 228 228 228 229
300 311 315 310 292 298 285 221 205 247 228 212 206 223 219 200 198 209 198 174 171 146 150 175 149 150 180 184 182 176 161 153 160 168 174 180 185 192 202 204 202 206 212 212 209 206 202 198 194 193 193 193 195 198 201 204 210 215 219 222 223 222 219 217 218 219 219 217 216 216 217 220 225 229 233 237 239 240 238 234 231 231 233 235 236 237
276 280 290 300 281 275 266 222 232 276 250 225 226 225 210 203 212 211 203 205 207 191 176 183 161 141 182 187 188 191 182 169 164 169 181 191 191 191 200 209 208 207 208 209 208 205 202 199 195 193 193 195 197 200 202 205 211 217 218 218 218 217 216 217 218 219 220 219 217 216 217 220 225 228 233 238 241 243 243 241 240 238 238 239 241 243
244 251 265 278 268 283 324 257 242 294 267 222 214 205 204 220 225 203 207 236 228 190 193 197 173 163 199 197 192 199 198 194 187 182 188 197 196 193 197 207 213 210 206 207 207 205 204 201 198 197 198 199 201 204 206 209 213 215 214 213 213 212 213 216 218 220 221 219 217 217 217 220 224 227 231 234 238 242 243 245 247 247 247 246 246 247
236 244 256 264 269 283 319 325 239 247 241 219 203 192 207 219 203 194 217 245 219 193 210 213 176 181 227 230 229 226 209 208 207 201 199 201 200 198 198 202 208 209 206 205 206 206 205 202 201 203 204 204 205 207 208 209 208 208 208 209 210 211 213 217 219 221 221 218 216 217 218 220 224 228 232 234 239 245 247 249 250 250 251 251 250 251
224 234 246 258 272 284 295 297 260 238 229 219 213 211 208 202 195 197 217 231 212 207 227 233 206 207 225 228 247 261 222 210 209 205 203 202 202 203 203 204 204 203 200 201 204 207 207 206 208 211 209 206 206 205 204 203 202 203 205 207 209 211 214 217 219 221 219 215 216 218 218 221 226 231 236 239 244 248 250 251 252 252 253 253 253 254
210 221 242 255 265 276 277 276 258 242 226 210 213 211 194 189 199 202 204 215 214 203 213 219 211 215 232 237 242 246 220 196 197 201 202 202 202 204 206 207 206 203 200 201 204 207 211 214 219 219 213 207 202 200 199 199 199 201 205 207 209 211 213 216 219 221 216 212 215 219 221 226 232 236 241 245 248 251 253 255 256 256 256 257 257 258
202 210 237 251 252 258 258 253 252 251 233 205 202 198 187 190 200 204 208 216 211 178 179 198 203 212 231 234 234 243 225 194 185 194 200 201 204 208 207 206 204 203 202 204 207 210 213 218 222 219 210 202 198 196 196 197 199 202 205 209 211 212 213 215 219 220 214 210 216 223 227 231 237 242 247 251 255 258 259 260 261 262 264 265 265 265
195 206 235 243 234 233 232 229 239 238 212 201 197 191 193 198 199 200 204 207 208 198 189 193 198 205 219 228 237 243 223 203 197 198 198 197 199 203 205 203 200 199 200 205 209 211 215 220 220 212 202 196 195 195 195 197 200 203 207 210 212 212 212 213 217 219 215 214 219 227 231 234 238 243 248 253 258 260 260 259 261 264 267 270 272 272
189 225 239 229 216 210 210 215 225 224 208 200 193 176 171 187 189 191 195 198 204 204 193 190 202 210 217 230 245 244 220 211 211 208 206 205 201 197 199 201 200 199 201 203 205 208 214 219 216 206 197 193 192 190 191 196 200 203 207 210 212 212 211 211 215 218 218 219 223 228 232 234 237 241 247 254 260 260 257 255 256 260 265 270 272 274
9 328 270 243 222 216 220 221 222 221 212 187 174 163 146 163 185 190 194 198 202 202 204 215 223 223 224 234 252 253 225 212 213 209 211 217 213 201 197 201 205 206 205 200 200 207 213 213 208 200 193 191 190 189 191 195 198 202 206 209 211 212 212 212 215 219 221 223 225 228 232 235 238 242 248 256 263 262 256 252 252 257 263 267 269 270
8 357 314 273 235 221 227 213 198 204 206 177 163 160 153 167 192 198 199 203 207 212 220 224 221 219 225 232 242 245 211 194 207 214 217 226 230 214 200 200 204 207 205 197 199 207 208 201 194 192 189 187 187 189 191 193 195 199 202 203 206 209 209 210 215 220 223 226 230 232 235 239 242 246 250 256 261 261 257 253 254 257 260 262 266 268
11 1 332 314 252 200 206 181 172 184 193 193 191 181 158 161 185 196 196 190 189 192 196 198 203 213 222 224 220 201 132 136 169 193 202 215 225 202 187 183 183 184 179 178 190 197 194 185 182 185 186 184 183 186 188 189 191 193 192 193 198 202 203 207 215 223 227 231 234 237 241 245 249 252 254 256 257 258 259 259 260 261 261 264 268 271
4 355 338 334 71 143 136 124 136 154 169 182 186 173 144 151 173 183 183 175 173 177 183 187 193 202 207 204 187 151 115 116 134 152 160 159 160 162 159 159 163 155 147 162 179 179 176 174 174 177 181 180 179 183 184 184 185 183 182 187 193 198 202 208 216 223 228 231 235 240 245 251 255 258 260 258 255 257 260 261 262 264 266 268 269 269
356 353 341 28 105 112 115 115 119 125 134 143 139 127 127 145 163 168 173 174 171 168 172 179 180 178 176 172 157 134 118 119 127 136 144 147 148 145 136 130 143 144 149 172 176 162 161 164 164 167 172 173 175 177 178 181 184 183 184 191 196 200 206 212 218 223 227 231 236 242 247 251 256 260 262 261 257 258 262 263 263 265 269 271 270 270
357 357 360 83 95 100 114 123 115 109 109 110 111 117 121 121 129 144 160 171 167 153 149 157 160 155 153 151 137 124 123 124 122 127 135 140 145 148 143 130 124 130 148 169 166 152 152 157 158 160 166 171 175 176 178 185 190 191 194 199 201 205 211 216 220 224 229 234 238 243 246 249 253 258 261 260 258 259 264 268 270 273 277 277 275 272
356 358 15 75 81 90 105 110 105 106 109 106 107 119 120 111 111 121 128 138 146 140 138 145 146 141 145 146 136 129 132 131 127 125 124 129 136 142 142 134 123 125 144 158 158 149 149 155 158 162 168 176 182 185 188 193 196 199 202 203 203 207 213 218 221 225 230 235 239 240 242 247 253 257 260 261 261 262 265 268 269 273 277 278 276 273
Height
3049 3050 3049 3049 3050 3052 3055 3056 3057 3059 3063 3066 3068 3069 3069 3069 3068 3071 3075 3078 3082 3082 3080 3082 3086 3089 3092 3096 3099 3102 3104 3105 3108 3111 3114 3118 3121 3125 3127 3124 3123 3124 3126 3130 3130 3131 3134 3136 3140 3143 3143 3143 3144 3145 3146 3148 3151 3153 3155 3157 3159 3160 3161 3163 3163 3164 3164 3165 3166 3166 3166 3167 3167 3167 3168 3169 3170 3171 3171 3172 3173 3173 3174 3175 3176 3177
3047 3046 3045 3045 3047 3051 3053 3055 3057 3058 3061 3063 3064 3065 3065 3065 3066 3069 3072 3075 3079 3079 3077 3080 3084 3085 3088 3091 3095 3099 3100 3101 3103 3107 3110 3114 3117 3120 3123 3122 3122 3122 3123 3126 3127 3128 3131 3134 3137 3140 3139 3139 3141 3142 3143 3146 3149 3152 3154 3156 3157 3159 3160 3161 3162 3162 3163 3163 3164 3165 3165 3165 3165 3166 3167 3168 3169 3169 3170 3170 3171 3172 3173 3173 3174 3175
3044 3042 3042 3043 3046 3049 3051 3053 3055 3057 3059 3060 3060 3061 3060 3061 3065 3067 3069 3072 3075 3074 3074 3078 3079 3079 3084 3088 3090 3093 3096 3096 3099 3103 3106 3110 3112 3114 3117 3119 3119 3118 3118 3121 3122 3125 3128 3131 3135 3137 3136 3136 3138 3139 3140 3143 3147 3150 3153 3154 3155 3157 3159 3160 3160 3160 3161 3162 3163 3163 3163 3164 3164 3166 3167 3167 3167 3168 3169 3169 3170 3171 3171 3172 3172 3173
3039 3037 3039 3042 3045 3047 3048 3050 3052 3054 3056 3056 3057 3057 3056 3058 3062 3063 3064 3067 3070 3071 3072 3076 3076 3075 3080 3083 3084 3087 3090 3093 3096 3099 3102 3105 3107 3110 3113 3115 3114 3112 3113 3116 3118 3121 3125 3129 3132 3133 3133 3134 3134 3135 3138 3141 3145 3149 3151 3152 3154 3156 3157 3157 3158 3158 3159 3160 3161 3162 3162 3163 3164 3165 3165 3165 3165 3166 3167 3167 3168 3169 3170 3170 3171 3171
3035 3035 3038 3041 3044 3045 3046 3047 3049 3051 3051 3052 3053 3052 3053 3056 3058 3059 3063 3066 3068 3069 3071 3074 3074 3071 3073 3076 3078 3083 3087 3089 3091 3094 3097 3100 3103 3106 3110 3110 3109 3108 3109 3112 3114 3117 3122 3125 3128 3130 3130 3131 3131 3133 3136 3139 3143 3147 3149 3151 3153 3154 3155 3155 3156 3156 3157 3158 3160 3161 3162 3162 3163 3163 3163 3163 3164 3164 3165 3166 3166 3167 3168 3168 3169 3170
3034 3035 3038 3040 3042 3043 3043 3044 3046 3048 3048 3048 3048 3048 3052 3055 3056 3058 3062 3065 3065 3063 3064 3069 3068 3065 3066 3070 3073 3078 3081 3083 3086 3088 3091 3095 3098 3102 3105 3105 3104 3104 3105 3108 3110 3114 3118 3122 3124 3126 3127 3127 3128 3130 3134 3138 3142 3145 3147 3149 3151 3152 3152 3153 3154 3154 3156 3158 3159 3160 3161 3161 3161 3161 3161 3162 3162 3163 3163 3164 3165 3166 3166 3166 3167 3168
3031 3033 3036 3038 3039 3040 3040 3040 3042 3046 3046 3044 3043 3048 3052 3054 3055 3056 3058 3062 3060 3057 3060 3064 3063 3062 3063 3064 3067 3072 3075 3077 3081 3083 3086 3091 3094 3097 3100 3101 3100 3100 3102 3105 3108 3111 3115 3118 3120 3122 3123 3124 3126 3128 3132 3136 3140 3143 3145 3147 3148 3149 3150 3151 3152 3153 3155 3157 3158 3159 3159 3159 3159 3159 3160 3160 3161 3161 3161 3162 3163 3163 3164 3164 3165 3166
3027 3030 3033 3034 3035 3036 3036 3037 3039 3043 3043 3040 3043 3049 3051 3051 3052 3052 3055 3058 3057 3058 3060 3061 3061 3061 3059 3058 3062 3067 3070 3073 3076 3078 3082 3085 3089 3093 3096 3097 3097 3097 3098 3102 3105 3108 3111 3114 3116 3118 3119 3121 3123 3127 3131 3135 3138 3141 3143 3144 3146 3147 3148 3149 3150 3151 3153 3155 3156 3157 3156 3156 3157 3157 3158 3158 3158 3159 3159 3160 3161 3161 3162 3162 3163 3164
3026 3028 3030 3031 3032 3032 3032 3034 3037 3040 3039 3038 3045 3049 3048 3049 3049 3050 3054 3055 3056 3058 3056 3055 3058 3057 3052 3053 3059 3063 3065 3067 3070 3073 3077 3080 3084 3088 3091 3092 3092 3094 3096 3099 3102 3105 3108 3110 3113 3114 3116 3118 3122 3126 3130 3133 3136 3139 3140 3141 3143 3145 3146 3147 3148 3150 3152 3154 3155 3155 3154 3154 3155 3155 3155 3156 3156 3157 3158 3158 3159 3159 3160 3161 3161 3162
3025 3026 3027 3028 3028 3028 3030 3033 3035 3037 3036 3039 3045 3047 3048 3049 3048 3049 3053 3054 3055 3054 3049 3049 3053 3050 3046 3050 3055 3056 3056 3059 3065 3069 3073 3076 3080 3083 3086 3087 3087 3090 3094 3096 3100 3102 3105 3107 3109 3111 3114 3117 3120 3124 3128 3131 3134 3136 3137 3140 3141 3142 3144 3145 3147 3148 3150 3152 3152 3152 3152 3152 3152 3153 3153 3154 3155 3155 3156 3156 3157 3157 3158 3159 3159 3160
3023 3024 3024 3024 3024 3026 3028 3030 3033 3034 3036 3040 3043 3044 3047 3047 3046 3049 3051 3053 3055 3049 3043 3044 3046 3045 3045 3045 3046 3048 3050 3055 3061 3065 3069 3073 3075 3078 3081 3081 3083 3087 3090 3093 3097 3099 3102 3105 3106 3109 3112 3115 3118 3122 3125 3128 3131 3133 3135 3137 3139 3140 3142 3144 3145 3147 3148 3149 3150 3151 3151 3151 3151 3151 3152 3153 3154 3153 3154 3154 3155 3155 3156 3157 3157 3159
3020 3021 3020 3019 3020 3022 3025 3026 3029 3031 3034 3038 3038 3041 3044 3042 3044 3048 3048 3051 3052 3043 3038 3039 3041 3042 3039 3036 3039 3045 3050 3055 3058 3061 3065 3068 3071 3075 3076 3077 3080 3083 3086 3090 3093 3095 3098 3100 3102 3105 3109 3112 3115 3119 3122 3125 3127 3130 3133 3135 3136 3138 3140 3142 3143 3144 3145 3146 3148 3149 3149 3149 3149 3149 3150 3151 3152 3152 3152 3153 3153 3154 3154 3155 3156 3158
3016 3015 3015 3016 3017 3019 3022 3022 3024 3027 3029 3032 3034 3037 3039 3037 3040 3044 3044 3046 3044 3036 3033 3035 3038 3036 3031 3031 3038 3044 3048 3051 3054 3057 3061 3064 3067 3071 3072 3073 3076 3080 3083 3086 3089 3091 3094 3096 3099 3103 3106 3109 3113 3116 3120 3122 3125 3128 3131 3133 3135 3137 3139 3140 3141 3142 3143 3144 3146 3147 3146 3147 3147 3148 3148 3149 3149 3150 3150 3151 3152 3152 3153 3153 3154 3156
3012 3011 3011 3013 3013 3014 3017 3019 3020 3021 3023 3026 3028 3031 3032 3031 3035 3038 3039 3039 3034 3028 3030 3033 3033 3029 3027 3031 3037 3041 3044 3047 3051 3054 3057 3060 3063 3067 3068 3069 3073 3076 3079 3082 3085 3088 3091 3094 3097 3101 3104 3107 3111 3115 3118 3120 3123 3126 3129 3131 3133 3135 3136 3137 3138 3139 3141 3142 3144 3144 3144 3144 3145 3146 3146 3147 3147 3148 3148 3149 3150 3151 3151 3152 3153 3154
3010 3008 3006 3006 3007 3009 3012 3014 3016 3019 3022 3022 3024 3028 3028 3026 3028 3031 3031 3029 3025 3025 3028 3029 3026 3021 3023 3029 3032 3038 3042 3044 3047 3051 3054 3057 3060 3063 3064 3066 3069 3073 3076 3080 3083 3086 3089 3093 3096 3099 3102 3106 3109 3112 3115 3118 3121 3124 3127 3130 3132 3133 3134 3135 3136 3137 3139 3140 3141 3141 3141 3142 3143 3143 3144 3144 3145 3146 3147 3147 3148 3149 3150 3150 3151 3152
3008 3003 3001 3002 3004 3006 3009 3010 3014 3019 3019 3019 3023 3026 3024 3023 3025 3026 3024 3022 3023 3025 3025 3024 3020 3017 3022 3027 3031 3036 3039 3040 3044 3047 3050 3053 3056 3059 3060 3061 3065 3069 3073 3077 3080 3083 3087 3091 3095 3098 3101 3104 3107 3110 3113 3116 3119 3122 3126 3128 3130 3131 3132 3133 3134 3135 3137 3137 3138 3138 3139 3139 3140 3141 3141 3142 3143 3144 3145 3146 3146 3147 3148 3148 3149 3150
3005 3000 2998 3001 3002 3004 3006 3008 3012 3015 3014 3015 3019 3019 3019 3021 3024 3024 3022 3022 3023 3024 3022 3019 3017 3018 3023 3027 3030 3033 3034 3036 3040 3043 3046 3049 3052 3056 3056 3057 3062 3065 3069 3073 3077 3080 3085 3089 3093 3096 3099 3102 3105 3108 3111 3115 3118 3121 3124 3126 3127 3129 3130 3131 3132 3134 3134 3135 3136 3136 3137 3137 3138 3139 3139 3140 3141 3142 3143 3144 3144 3145 3146 3147 3147 3148
3004 2999 2996 2999 2999 3000 3004 3008 3010 3011 3011 3013 3014 3016 3020 3023 3021 3021 3021 3020 3021 3021 3018 3015 3015 3016 3019 3023 3026 3029 3030 3031 3035 3039 3043 3045 3049 3052 3052 3054 3058 3061 3065 3070 3074 3078 3083 3087 3090 3093 3097 3101 3104 3107 3110 3113 3116 3119 3122 3123 3125 3127 3128 3129 3131 3132 3132 3132 3134 3135 3135 3136 3137 3137 3138 3138 3139 3140 3141 3142 3143 3144 3144 3145 3145 3146
3003 2999 2994 2994 2996 2997 3002 3006 3006 3007 3010 3012 3010 3012 3017 3020 3018 3018 3019 3018 3018 3018 3014 3012 3014 3014 3015 3018 3022 3024 3025 3027 3031 3036 3039 3042 3046 3049 3050 3053 3056 3058 3062 3067 3072 3076 3080 3084 3088 3092 3096 3099 3102 3106 3108 3112 3114 3117 3119 3121 3123 3125 3126 3128 3129 3129 3130 3130 3131 3133 3134 3134 3135 3136 3136 3137 3138 3138 3139 3140 3141 3142 3142 3143 3143 3144
3002 3000 2995 2992 2994 2997 3000 3001 3001 3003 3007 3010 3010 3010 3011 3014 3014 3015 3015 3014 3014 3015 3014 3013 3013 3012 3013 3016 3019 3021 3023 3025 3029 3033 3036 3040 3043 3046 3048 3050 3053 3056 3059 3064 3069 3073 3077 3082 3087 3091 3095 3098 3100 3103 3106 3109 3112 3115 3117 3119 3121 3123 3124 3125 3127 3127 3128 3129 3129 3131 3132 3133 3133 3134 3135 3135 3136 3137 3138 3139 3139 3140 3140 3140 3141 3142
3000 3000 2996 2994 2995 2996 2996 2994 2996 3001 3005 3008 3010 3009 3008 3010 3011 3013 3013 3011 3011 3012 3012 3014 3013 3010 3012 3015 3018 3019 3021 3024 3027 3031 3034 3038 3041 3045 3047 3048 3050 3054 3058 3062 3067 3071 3075 3081 3086 3090 3093 3096 3098 3101 3104 3107 3110 3113 3115 3117 3119 3120 3122 3123 3124 3126 3127 3127 3128 3129 3130 3131 3132 3133 3133 3134 3134 3135 3136 3137 3138 3138 3138 3138 3139 3141
2998 2998 2996 2995 2995 2994 2992 2993 2997 3001 3005 3007 3008 3007 3007 3009 3010 3012 3012 3009 3010 3010 3010 3011 3012 3010 3011 3014 3017 3019 3020 3022 3026 3029 3033 3037 3040 3043 3045 3046 3049 3053 3056 3060 3065 3070 3075 3080 3084 3087 3091 3093 3096 3099 3102 3105 3108 3111 3113 3115 3116 3118 3120 3121 3122 3124 3125 3126 3126 3127 3128 3129 3130 3131 3132 3132 3133 3134 3135 3135 3136 3136 3136 3137 3138 3139
2998 2998 2996 2995 2995 2994 2993 2996 2999 3001 3004 3006 3006 3006 3008 3009 3010 3011 3010 3008 3008 3009 3008 3009 3010 3009 3010 3013 3015 3018 3020 3022 3025 3028 3032 3036 3039 3042 3044 3045 3049 3052 3055 3059 3064 3069 3074 3078 3082 3086 3089 3091 3094 3097 3100 3103 3106 3109 3111 3112 3114 3116 3118 3119 3121 3122 3123 3124 3125 3126 3127 3128 3129 3130 3130 3130 3131 3132 3133 3133 3134 3134 3135 3136 3137 3138
2999 2998 2997 2995 2995 2995 2996 2998 3001 3003 3005 3005 3004 3005 3007 3008 3010 3010 3010 3008 3008 3008 3008 3009 3009 3009 3009 3011 3014 3016 3019 3022 3026 3029 3031 3034 3037 3039 3042 3044 3048 3050 3053 3058 3063 3068 3073 3077 3081 3084 3087 3089 3091 3094 3097 3101 3104 3106 3108 3109 3112 3114 3116 3117 3119 3120 3121 3122 3124 3124 3125 3126 3127 3128 3129 3129 3130 3131 3132 3132 3132 3133 3134 3135 3136 3138
2999 2999 2998 2996 2996 2998 2999 3001 3002 3002 3004 3003 3002 3004 3005 3007 3009 3009 3009 3010 3009 3007 3007 3009 3009 3008 3008 3009 3011 3014 3017 3021 3025 3028 3030 3032 3035 3037 3040 3043 3046 3048 3052 3057 3062 3067 3071 3075 3079 3082 3085 3087 3090 3092 3095 3098 3101 3103 3105 3107 3110 3112 3114 3115 3117 3118 3119 3121 3122 3123 3124 3125 3126 3127 3127 3128 3129 3130 3130 3130 3131 3132 3133 3134 3136 3137
2999 2999 2998 2998 2998 2999 3000 3000 2999 2999 3001 3002 3002 3002 3003 3004 3005 3007 3008 3009 3008 3007 3007 3007 3007 3007 3007 3008 3010 3013 3016 3019 3023 3027 3029 3030 3033 3035 3038 3041 3044 3047 3051 3055 3060 3065 3070 3074 3077 3080 3083 3085 3088 3091 3093 3096 3098 3101 3103 3105 3108 3110 3112 3113 3115 3116 3118 3119 3120 3122 3123 3124 3125 3125 3126 3127 3128 3128 3129 3129 3130 3131 3132 3133 3135 3137
2999 2999 2998 2998 2998 2998 2998 2998 2997 2998 3000 3001 3001 3001 3002 3001 3001 3005 3008 3007 3006 3006 3005 3005 3006 3007 3008 3009 3011 3014 3017 3019 3022 3025 3027 3028 3030 3033 3036 3039 3042 3046 3050 3054 3059 3064 3068 3072 3074 3077 3080 3083 3086 3089 3091 3094 3096 3098 3101 3103 3106 3108 3109 3111 3113 3114 3116 3117 3119 3121 3122 3123 3123 3124 3125 3126 3126 3127 3127 3128 3129 3130 3131 3133 3135 3137
2999 2998 2997 2997 2996 2996 2998 2999 2999 3000 2999 3000 3001 3001 3002 3001 3000 3004 3007 3005 3005 3005 3004 3004 3005 3006 3007 3009 3011 3014 3017 3019 3021 3023 3025 3027 3029 3032 3035 3038 3041 3045 3049 3053 3058 3062 3066 3069 3071 3074 3078 3081 3084 3086 3089 3092 3094 3097 3099 3102 3104 3105 3107 3109 3111 3112 3114 3116 3117 3119 3120 3121 3122 3123 3123 3124 3125 3126 3126 3127 3128 3129 3131 3133 3135 3137
2999 2998 2997 2996 2995 2995 2997 2999 3001 3001 3000 3000 3001 3001 3002 3002 3001 3004 3006 3004 3004 3004 3003 3002 3002 3002 3006 3008 3010 3013 3015 3017 3019 3021 3024 3026 3028 3031 3033 3036 3040 3044 3048 3052 3056 3060 3064 3067 3069 3072 3075 3079 3081 3084 3087 3090 3092 3094 3097 3099 3101 3103 3105 3107 3109 3110 3113 3114 3116 3117 3119 3120 3121 3121 3122 3123 3123 3124 3125 3126 3127 3128 3130 3132 3134 3136
3001 3000 3000 2999 2996 2994 2995 2999 3001 3002 3001 3000 3000 3002 3004 3002 3001 3005 3005 3003 3004 3004 3004 3003 3001 3001 3005 3008 3009 3012 3013 3016 3018 3020 3022 3024 3027 3029 3031 3034 3039 3043 3047 3050 3054 3058 3062 3065 3068 3071 3073 3076 3079 3082 3085 3088 3090 3092 3095 3097 3099 3101 3104 3105 3107 3109 3111 3112 3114 3115 3117 3118 3119 3120 3120 3121 3122 3123 3124 3125 3126 3128 3130 3132 3133 3135
3002 3003 3002 3001 2998 2995 2995 2998 3001 3002 3002 3001 2999 3001 3003 3003 3004 3005 3004 3003 3005 3004 3004 3003 3001 3001 3005 3009 3011 3012 3013 3016 3017 3018 3021 3024 3026 3028 3031 3033 3038 3041 3045 3049 3053 3057 3060 3063 3066 3069 3071 3074 3077 3080 3083 3086 3088 3090 3092 3095 3097 3099 3102 3104 3105 3107 3109 3110 3112 3114 3115 3117 3118 3118 3119 3120 3121 3122 3123 3124 3125 3127 3129 3130 3132 3134
3003 3004 3003 3002 3000 2996 2995 2998 3000 3001 3002 3001 2998 2998 3001 3004 3005 3005 3003 3004 3006 3005 3004 3003 3001 3001 3004 3007 3010 3011 3012 3015 3016 3017 3020 3023 3026 3029 3032 3034 3038 3041 3045 3048 3051 3055 3058 3061 3064 3066 3069 3072 3075 3078 3081 3084 3086 3087 3089 3092 3094 3097 3100 3102 3103 3105 3107 3108 3110 3112 3114 3115 3116 3117 3118 3119 3120 3121 3122 3123 3125 3126 3128 3129 3131 3132
3003 3003 3002 3003 3001 2998 2997 2998 2999 3002 3003 3000 2997 2998 3001 3004 3005 3005 3005 3006 3006 3006 3006 3004 3002 3003 3005 3007 3009 3011 3012 3015 3016 3017 3020 3022 3026 3029 3032 3035 3038 3041 3044 3047 3050 3053 3055 3059 3062 3065 3068 3071 3073 3076 3079 3082 3083 3085 3087 3089 3092 3095 3098 3100 3102 3103 3105 3106 3108 3110 3112 3114 3114 3115 3117 3118 3119 3120 3121 3122 3124 3125 3127 3128 3129 3131
3003 3003 3003 3003 3003 3000 2998 2998 3000 3003 3001 2996 2995 2999 3002 3004 3006 3006 3007 3007 3006 3006 3006 3005 3005 3005 3006 3008 3010 3012 3014 3016 3018 3020 3022 3023 3026 3028 3031 3034 3037 3040 3043 3046 3048 3051 3053 3056 3060 3063 3066 3069 3071 3074 3077 3079 3080 3082 3085 3087 3090 3093 3096 3098 3100 3101 3103 3105 3107 3109 3111 3112 3113 3114 3115 3117 3118 3119 3120 3121 3123 3124 3125 3127 3128 3129
3003 3004 3004 3004 3004 3003 3000 3000 3003 3002 2995 2992 2996 2999 3001 3004 3006 3007 3007 3006 3006 3006 3007 3006 3007 3007 3008 3010 3011 3013 3015 3017 3019 3021 3023 3024 3025 3027 3030 3033 3036 3040 3042 3044 3047 3049 3051 3054 3057 3060 3063 3066 3069 3071 3073 3075 3077 3080 3083 3085 3088 3091 3093 3095 3097 3099 3101 3103 3105 3107 3109 3110 3111 3112 3114 3115 3116 3118 3119 3120 3121 3123 3124 3125 3126 3128
3003 3004 3005 3005 3005 3005 3003 3001 3001 2997 2992 2993 2998 2999 3000 3004 3005 3006 3006 3006 3006 3007 3007 3007 3008 3008 3009 3010 3011 3013 3015 3017 3020 3022 3024 3025 3026 3027 3030 3033 3036 3039 3041 3043 3045 3047 3049 3052 3055 3058 3061 3063 3066 3068 3070 3073 3076 3078 3081 3083 3086 3088 3091 3093 3095 3097 3099 3101 3104 3106 3107 3108 3110 3111 3113 3114 3115 3116 3117 3118 3119 3121 3122 3123 3124 3126
3002 3003 3005 3005 3006 3006 3004 3002 3000 2997 2995 2996 2998 2999 3000 3003 3004 3006 3006 3006 3006 3008 3008 3008 3009 3009 3010 3011 3012 3013 3015 3018 3021 3022 3023 3024 3026 3027 3030 3032 3035 3038 3041 3043 3045 3047 3049 3051 3054 3056 3059 3061 3064 3066 3068 3071 3074 3076 3078 3081 3083 3086 3088 3090 3093 3095 3097 3100 3102 3104 3105 3107 3108 3110 3111 3112 3113 3114 3115 3116 3117 3119 3120 3121 3122 3124
3003 3003 3004 3006 3006 3006 3006 3005 3004 3001 2997 2995 2997 3000 3002 3003 3004 3006 3006 3006 3007 3009 3009 3009 3010 3010 3011 3012 3013 3014 3015 3017 3020 3021 3022 3023 3025 3027 3030 3032 3034 3037 3039 3041 3043 3045 3047 3049 3052 3055 3057 3059 3061 3064 3067 3069 3071 3074 3076 3078 3081 3084 3086 3088 3090 3093 3095 3098 3100 3102 3103 3105 3107 3108 3109 3110 3111 3112 3113 3115 3116 3117 3118 3119 3120 3121
3002 3002 3003 3004 3005 3005 3006 3007 3005 3002 2998 2995 2998 3001 3003 3004 3005 3006 3007 3007 3006 3008 3009 3010 3010 3010 3011 3013 3014 3015 3015 3017 3018 3020 3022 3023 3024 3025 3027 3029 3032 3034 3036 3039 3040 3042 3044 3047 3050 3053 3055 3057 3059 3062 3064 3067 3069 3071 3074 3076 3079 3081 3083 3086 3088 3091 3094 3096 3098 3100 3102 3104 3105 3105 3107 3108 3109 3110 3111 3113 3114 3115 3116 3117 3118 3118
3001 3001 3002 3003 3003 3004 3006 3006 3005 3001 2998 2997 2999 3001 3002 3005 3006 3007 3007 3006 3005 3007 3008 3009 3010 3010 3011 3012 3014 3015 3015 3016 3017 3019 3021 3022 3022 3024 3026 3027 3028 3030 3032 3035 3037 3040 3043 3046 3048 3050 3053 3055 3057 3060 3062 3064 3067 3069 3072 3074 3077 3079 3082 3085 3087 3090 3093 3095 3097 3098 3100 3101 3102 3103 3105 3106 3107 3108 3109 3110 3111 3112 3113 3114 3115 3115
3000 3001 3001 3002 3002 3003 3004 3005 3003 3000 2998 2998 2999 3000 3002 3004 3006 3005 3005 3005 3006 3007 3008 3009 3009 3009 3010 3012 3014 3014 3015 3016 3017 3018 3019 3020 3021 3022 3023 3025 3026 3028 3029 3031 3034 3037 3041 3044 3046 3048 3051 3053 3055 3057 3060 3062 3065 3067 3070 3073 3075 3078 3081 3084 3086 3088 3091 3093 3095 3096 3097 3099 3100 3101 3103 3104 3105 3106 3106 3107 3108 3109 3110 3111 3111 3112
2999 3000 3001 3002 3002 3003 3003 3003 3002 3000 2998 2997 2997 2998 3001 3002 3003 3003 3004 3006 3007 3008 3008 3008 3008 3008 3010 3012 3013 3015 3015 3015 3016 3016 3017 3019 3021 3021 3021 3022 3023 3025 3027 3029 3032 3035 3038 3041 3044 3046 3048 3051 3053 3056 3058 3061 3063 3066 3068 3071 3074 3077 3080 3082 3084 3087 3089 3091 3092 3093 3095 3097 3099 3100 3101 3102 3102 3103 3104 3104 3105 3106 3107 3107 3108 3109
2999 3000 3001 3002 3002 3002 3002 3002 3001 2999 2997 2997 2997 2998 3000 3001 3002 3003 3005 3006 3006 3007 3007 3007 3007 3009 3010 3012 3013 3014 3014 3014 3013 3012 3012 3014 3015 3015 3016 3018 3019 3021 3024 3027 3030 3033 3037 3039 3041 3043 3046 3049 3052 3054 3057 3060 3062 3065 3067 3070 3073 3076 3078 3080 3083 3085 3087 3088 3090 3091 3093 3095 3096 3097 3098 3099 3099 3100 3100 3101 3102 3103 3103 3104 3104 3105
3000 3000 3001 3001 3001 3001 3001 3000 2999 2998 2997 2997 2997 2998 2999 3001 3002 3003 3004 3005 3005 3006 3007 3007 3008 3010 3011 3011 3012 3012 3012 3013 3013 3013 3015 3015 3013 3012 3014 3016 3017 3019 3022 3025 3028 3032 3036 3038 3039 3042 3045 3048 3051 3054 3056 3059 3061 3064 3067 3070 3072 3074 3076 3079 3081 3082 3084 3086 3088 3089 3091 3092 3094 3095 3096 3096 3097 3097 3097 3098 3099 3100 3101 3101 3102 3102
3001 3000 3000 2999 2999 3000 2999 2998 2998 2997 2996 2996 2997 2996 2996 2999 3002 3003 3004 3005 3005 3005 3007 3008 3009 3010 3011 3011 3011 3012 3012 3013 3014 3014 3016 3016 3016 3017 3018 3018 3019 3021 3023 3025 3029 3032 3035 3037 3039 3042 3045 3047 3050 3053 3056 3058 3061 3064 3067 3069 3071 3073 3075 3077 3079 3080 3082 3084 3085 3087 3089 3090 3091 3092 3093 3094 3094 3095 3095 3096 3097 3098 3098 3099 3100 3100
3001 3000 2999 2999 2999 2998 2998 2997 2997 2996 2995 2996 2997 2997 2995 2997 3000 3002 3003 3004 3005 3006 3008 3009 3009 3010 3010 3011 3011 3012 3013 3014 3015 3015 3016 3016 3017 3020 3021 3021 3023 3025 3026 3028 3030 3032 3034 3036 3039 3042 3045 3047 3050 3053 3055 3058 3061 3064 3066 3068 3070 3072 3074 3076 3077 3078 3080 3081 3083 3085 3086 3087 3088 3090 3091 3092 3092 3092 3093 3094 3095 3096 3096 3097 3098 3098
3000 3000 2999 2999 2998 2997 2997 2996 2996 2996 2996 2996 2998 2999 2997 2995 2997 3000 3002 3003 3005 3006 3007 3008 3009 3010 3010 3011 3012 3013 3013 3014 3015 3016 3017 3017 3018 3020 3022 3024 3025 3026 3028 3030 3032 3033 3034 3037 3040 3043 3045 3047 3050 3053 3056 3058 3061 3063 3066 3068 3070 3072 3074 3075 3076 3077 3078 3080 3081 3082 3083 3084 3086 3087 3088 3089 3090 3090 3091 3091 3092 3093 3094 3095 3095 3096
3001 3000 2999 2999 2998 2997 2996 2996 2995 2996 2996 2996 2997 2999 2998 2996 2996 2998 3000 3002 3004 3006 3007 3008 3008 3009 3010 3011 3012 3013 3014 3014 3015 3016 3017 3018 3019 3022 3024 3025 3026 3027 3030 3032 3033 3034 3036 3038 3041 3044 3046 3048 3051 3053 3056 3058 3060 3062 3065 3067 3069 3071 3073 3074 3075 3076 3077 3078 3079 3080 3081 3082 3083 3084 3085 3087 3087 3088 3089 3089 3090 3091 3092 3092 3093 3093
3001 3000 3000 3000 2999 2997 2997 2997 2997 2996 2997 2998 2999 2998 2997 2996 2998 3000 3001 3003 3005 3006 3007 3007 3007 3008 3010 3011 3012 3014 3014 3015 3016 3017 3018 3019 3021 3023 3026 3027 3028 3029 3031 3034 3035 3036 3038 3040 3042 3045 3047 3049 3052 3054 3056 3058 3060 3062 3064 3066 3068 3070 3072 3073 3074 3075 3076 3077 3078 3079 3080 3080 3081 3081 3082 3083 3085 3085 3086 3086 3087 3088 3089 3089 3090 3090
3002 3001 3001 3001 3000 2998 2998 2999 2999 2998 2999 3000 3000 2999 2998 2999 3001 3002 3004 3005 3007 3007 3007 3007 3007 3008 3010 3011 3013 3015 3016 3016 3017 3018 3018 3020 3022 3024 3026 3029 3030 3031 3033 3036 3038 3038 3040 3042 3044 3046 3049 3050 3052 3054 3056 3058 3059 3061 3063 3065 3067 3068 3070 3071 3072 3073 3074 3075 3076 3077 3078 3078 3078 3079 3080 3081 3082 3083 3083 3083 3084 3085 3086 3086 3087 3088
3003 3003 3002 3002 3000 2999 3000 3000 3000 3000 3001 3002 3001 3001 3001 3002 3003 3005 3005 3006 3008 3008 3008 3008 3009 3009 3010 3012 3014 3015 3016 3017 3018 3019 3020 3021 3022 3025 3027 3030 3032 3033 3035 3038 3040 3041 3042 3044 3045 3047 3050 3051 3053 3055 3056 3057 3059 3060 3062 3063 3065 3066 3067 3068 3069 3070 3071 3072 3073 3074 3075 3075 3076 3077 3078 3079 3079 3080 3081 3081 3082 3083 3084 3084 3084 3085